Fort Atkinson, Wisconsin, United States (53538)
Lat: 42.93N, Lon: 88.84W
Wx Zone: WIZ064
Local Info
Past Weather Observations for Wednesday, March 25, 2015

NOTE: This archive is for the closest National Weather Service station to Fort Atkinson. Information may differ from the station used for current weather conditions.

Click here for Long-term Archive

Time Weather Temperature Dewpoint Humidity Pressure Winds Precip Visibility
23:55
Overcast
Unknown Precip
34°F / 1°C 30°F / -1°C 87% 29.89 in
(1012 mb)
SE 6.9 mph
(SE 11 kph)
0.03 in
(0.76 mm)
5SM
23:35
Overcast
Light Rain
34°F / 1°C 28°F / -2°C 81% 29.86 in
(1011 mb)
ESE 11.5 mph
(ESE 19 kph)
0.02 in
(0.51 mm)
5SM
23:15
Overcast
36°F / 2°C 23°F / -5°C 60% 29.89 in
(1012 mb)
ESE 12.7 mph
(ESE 20 kph)
- 10SM
22:55
Overcast
36°F / 2°C 21°F / -6°C 56% 29.89 in
(1012 mb)
E 17.3 mph
(E 28 kph)
- 10SM
22:35
Mostly Cloudy
34°F / 1°C 21°F / -6°C 60% 29.92 in
(1013 mb)
E 11.5 mph
(E 19 kph)
- 10SM
22:15
Overcast
34°F / 1°C 21°F / -6°C 60% 29.92 in
(1013 mb)
E 13.8 mph
(E 22 kph)
- 10SM
21:55
Overcast
34°F / 1°C 21°F / -6°C 60% 29.98 in
(1015 mb)
E 15 mph
(E 24 kph)
- 10SM
21:35
Overcast
34°F / 1°C 19°F / -7°C 56% 29.98 in
(1015 mb)
E 13.8 mph
(E 22 kph)
- 10SM
21:15
Overcast
34°F / 1°C 19°F / -7°C 56% 30.01 in
(1016 mb)
ESE 10.4 mph
(ESE 17 kph)
- 10SM
20:55
Overcast
34°F / 1°C 19°F / -7°C 56% 30.01 in
(1016 mb)
ESE 9.2 mph
(ESE 15 kph)
- 10SM
20:35
Overcast
Light Snow
34°F / 1°C 18°F / -8°C 51% 30.01 in
(1016 mb)
ESE 12.7 mph
(ESE 20 kph)
- 10SM
20:15
Overcast
34°F / 1°C 18°F / -8°C 51% 30.04 in
(1017 mb)
ESE 12.7 mph
(ESE 20 kph)
- 10SM
19:55
Overcast
34°F / 1°C 16°F / -9°C 48% 30.04 in
(1017 mb)
E 11.5 mph
(E 19 kph)
- 10SM
19:35
Overcast
32°F / 0°C 16°F / -9°C 51% 30.04 in
(1017 mb)
ESE 10.4 mph
(ESE 17 kph)
- 10SM
19:15
Partly Cloudy
32°F / 0°C 14°F / -10°C 47% 30.06 in
(1018 mb)
ESE 10.4 mph
(ESE 17 kph)
- 10SM
18:55
Clear
32°F / 0°C 14°F / -10°C 47% 30.06 in
(1018 mb)
SE 9.2 mph
(SE 15 kph)
- 10SM
18:35
Clear
32°F / 0°C 12°F / -11°C 44% 30.09 in
(1019 mb)
SE 10.4 mph
(SE 17 kph)
- 10SM
18:15
Clear
32°F / 0°C 12°F / -11°C 44% 30.09 in
(1019 mb)
E 9.2 mph
(E 15 kph)
- 10SM
17:55
Clear
34°F / 1°C 14°F / -10°C 44% 30.09 in
(1019 mb)
ESE 8.1 mph
(ESE 13 kph)
- 10SM
17:35
Clear
34°F / 1°C 12°F / -11°C 41% 30.09 in
(1019 mb)
E 9.2 mph
(E 15 kph)
- 10SM
17:15
Clear
36°F / 2°C 12°F / -11°C 38% 30.12 in
(1020 mb)
ESE 6.9 mph
(ESE 11 kph)
- 10SM
16:55
Clear
36°F / 2°C 12°F / -11°C 38% 30.09 in
(1019 mb)
E 9.2 mph
(E 15 kph)
- 10SM
16:35
Clear
36°F / 2°C 14°F / -10°C 41% 30.09 in
(1019 mb)
E 12.7 mph
(E 20 kph)
- 10SM
16:15
Clear
37°F / 3°C 14°F / -10°C 38% 30.09 in
(1019 mb)
ESE 10.4 mph
(ESE 17 kph)
- 10SM
15:55
Clear
39°F / 4°C 16°F / -9°C 39% 30.09 in
(1019 mb)
E 16.1 mph
(E 26 kph)
- 10SM
15:35
Clear
39°F / 4°C 14°F / -10°C 36% 30.12 in
(1020 mb)
SE 9.2 mph
(SE 15 kph)
- 10SM
15:15
Clear
39°F / 4°C 14°F / -10°C 36% 30.12 in
(1020 mb)
E 13.8 mph
(E 22 kph)
- 10SM
14:55
Clear
39°F / 4°C 14°F / -10°C 36% 30.12 in
(1020 mb)
ESE 11.5 mph
(ESE 19 kph)
- 10SM
14:35
Clear
41°F / 5°C 16°F / -9°C 36% 30.15 in
(1021 mb)
SE 13.8 mph
(SE 22 kph)
- 10SM
14:15
Clear
41°F / 5°C 18°F / -8°C 39% 30.15 in
(1021 mb)
SE 11.5 mph
(SE 19 kph)
- 10SM
13:55
Clear
41°F / 5°C 18°F / -8°C 39% 30.15 in
(1021 mb)
SE 11.5 mph
(SE 19 kph)
- 10SM
13:35
Clear
41°F / 5°C 18°F / -8°C 39% 30.18 in
(1022 mb)
SE 12.7 mph
(SE 20 kph)
- 10SM
13:15
Clear
43°F / 6°C 19°F / -7°C 39% 30.18 in
(1022 mb)
SE 13.8 mph
(SE 22 kph)
- 10SM
12:55
Clear
41°F / 5°C 19°F / -7°C 42% 30.18 in
(1022 mb)
SE 12.7 mph
(SE 20 kph)
- 10SM
12:35
Clear
41°F / 5°C 21°F / -6°C 45% 30.21 in
(1023 mb)
SE 10.4 mph
(SE 17 kph)
- 10SM
12:15
Clear
41°F / 5°C 21°F / -6°C 45% 30.21 in
(1023 mb)
SE 9.2 mph
(SE 15 kph)
- 10SM
11:55
Clear
39°F / 4°C 19°F / -7°C 45% 30.24 in
(1024 mb)
SE 10.4 mph
(SE 17 kph)
- 10SM
11:35
Clear
41°F / 5°C 21°F / -6°C 45% 30.24 in
(1024 mb)
E 9.2 mph
(E 15 kph)
- 10SM
11:15
Clear
39°F / 4°C 21°F / -6°C 48% 30.24 in
(1024 mb)
SE 9.2 mph
(SE 15 kph)
- 10SM
10:55
Clear
39°F / 4°C 23°F / -5°C 52% 30.24 in
(1024 mb)
SE 12.7 mph
(SE 20 kph)
- 10SM
10:35
Clear
37°F / 3°C 23°F / -5°C 56% 30.24 in
(1024 mb)
SE 10.4 mph
(SE 17 kph)
- 10SM
10:15
Clear
37°F / 3°C 23°F / -5°C 56% 30.24 in
(1024 mb)
SE 10.4 mph
(SE 17 kph)
- 10SM
09:55
Clear
36°F / 2°C 23°F / -5°C 60% 30.27 in
(1025 mb)
SE 11.5 mph
(SE 19 kph)
- 10SM
09:35
Clear
36°F / 2°C 23°F / -5°C 60% 30.27 in
(1025 mb)
ESE 9.2 mph
(ESE 15 kph)
- 10SM
09:15
Clear
36°F / 2°C 23°F / -5°C 60% 30.27 in
(1025 mb)
SE 12.7 mph
(SE 20 kph)
- 10SM
08:55
Clear
34°F / 1°C 25°F / -4°C 70% 30.27 in
(1025 mb)
SE 9.2 mph
(SE 15 kph)
- 10SM
08:35
Clear
32°F / 0°C 27°F / -3°C 80% 30.27 in
(1025 mb)
SE 8.1 mph
(SE 13 kph)
- 10SM
08:15
Clear
32°F / 0°C 27°F / -3°C 80% 30.27 in
(1025 mb)
SE 9.2 mph
(SE 15 kph)
- 10SM
07:55
Clear
30°F / -1°C 27°F / -3°C 86% 30.27 in
(1025 mb)
ESE 8.1 mph
(ESE 13 kph)
- 10SM
07:35
Clear
28°F / -2°C 25°F / -4°C 86% 30.27 in
(1025 mb)
E 4.6 mph
(E 7 kph)
- 10SM
07:15
Clear
27°F / -3°C 25°F / -4°C 93% 30.27 in
(1025 mb)
ESE 4.6 mph
(ESE 7 kph)
- 10SM
06:55
Clear
25°F / -4°C 23°F / -5°C 93% 30.27 in
(1025 mb)
E 4.6 mph
(E 7 kph)
- 10SM
06:35
Clear
21°F / -6°C 19°F / -7°C 93% 30.27 in
(1025 mb)
Calm - 10SM
06:15
Clear
19°F / -7°C 18°F / -8°C 93% 30.27 in
(1025 mb)
Calm - 10SM
05:55
Clear
19°F / -7°C 18°F / -8°C 93% 30.27 in
(1025 mb)
Calm - 10SM
05:35
Clear
18°F / -8°C 16°F / -9°C 93% 30.27 in
(1025 mb)
Calm - 10SM
05:15
Clear
18°F / -8°C 16°F / -9°C 93% 30.27 in
(1025 mb)
Calm - 10SM
04:55
Clear
18°F / -8°C 16°F / -9°C 93% 30.27 in
(1025 mb)
Calm - 10SM
04:35
Clear
18°F / -8°C 16°F / -9°C 93% 30.27 in
(1025 mb)
Calm - 10SM
04:15
Clear
18°F / -8°C 16°F / -9°C 93% 30.27 in
(1025 mb)
Calm - 10SM
03:55
Clear
18°F / -8°C 16°F / -9°C 93% 30.27 in
(1025 mb)
Calm - 10SM
03:35
Clear
18°F / -8°C 16°F / -9°C 93% 30.27 in
(1025 mb)
Calm - 10SM
03:15
Clear
19°F / -7°C 16°F / -9°C 86% 30.27 in
(1025 mb)
Calm - 10SM
02:55
Clear
19°F / -7°C 18°F / -8°C 93% 30.27 in
(1025 mb)
Calm - 10SM
02:35
Clear
19°F / -7°C 18°F / -8°C 93% 30.27 in
(1025 mb)
Calm - 10SM
02:15
Clear
19°F / -7°C 16°F / -9°C 86% 30.27 in
(1025 mb)
Calm - 10SM
01:55
Clear
19°F / -7°C 16°F / -9°C 86% 30.27 in
(1025 mb)
Calm - 10SM
01:35
Clear
19°F / -7°C 16°F / -9°C 86% 30.27 in
(1025 mb)
Calm - 10SM
01:15
Clear
21°F / -6°C 18°F / -8°C 86% 30.27 in
(1025 mb)
E 3.5 mph
(E 6 kph)
- 10SM
00:55
Clear
21°F / -6°C 18°F / -8°C 86% 30.27 in
(1025 mb)
E 3.5 mph
(E 6 kph)
- 10SM
00:35
Clear
19°F / -7°C 16°F / -9°C 86% 30.3 in
(1026 mb)
E 3.5 mph
(E 6 kph)
- 10SM
00:15
Clear
19°F / -7°C 16°F / -9°C 86% 30.3 in
(1026 mb)
Calm - 10SM
Time Weather Temperature Dewpoint Humidity Pressure Winds Precip Visibility


Weather for websites

WeatherForYou.com, LLC is not responsible for any damages or problems caused by this service. Current weather conditions are obtained from the closest station including government and personal stations which may have varying degrees of accuracy. Weather forecasts are derived from the NOAA NDFD. Like all things, this site belongs to Jesus Christ... He just trusts me to maintain it. If you have any questions or comments email webmaster@weatherforyou.com

Copyright © 2015, WeatherForYou.com LLC. All rights reserved.